CYAZ

Tofino/Long Beach Airport

Tofino, British Columbia, Canada
Issued Wind Visibility Ceiling Temperature Dew Point Humidity Barometer
Sep-24
20:38 UTC
180°
3 KTS
5 miles Broken
2,600' AGL
14° C
57° F
12° C
54° F
88% 30.16" Hg
1021.3 hPa
MVFR
Sep-24
20:15 UTC
210°
5 KTS
4 miles Broken
900' AGL
14° C
57° F
12° C
54° F
88% 30.16" Hg
1021.4 hPa
IFR
Sep-24
20:00 UTC
200°
6 KTS
4 miles Broken
800' AGL
14° C
57° F
13° C
55° F
94% 30.16" Hg
1021.4 hPa
IFR
Sep-24
19:42 UTC
200°
4 KTS
4 miles Broken
700' AGL
14° C
57° F
12° C
54° F
88% 30.16" Hg
1021.5 hPa
IFR
Sep-24
19:00 UTC
180°
3 KTS
4 miles Broken
500' AGL
13° C
55° F
12° C
54° F
94% 30.16" Hg
1021.4 hPa
IFR
Sep-24
18:23 UTC
160°
3 KTS
4 miles Broken
500' AGL
13° C
55° F
12° C
54° F
94% 30.16" Hg
1021.3 hPa
IFR
Sep-24
18:08 UTC
Varies @2 KTS 4 miles Broken
400' AGL
13° C
55° F
12° C
54° F
94% 30.16" Hg
1021.5 hPa
LIFR
Sep-24
18:00 UTC
200°
3 KTS
4 miles Overcast
2,000' AGL
13° C
55° F
12° C
54° F
94% 30.16" Hg
1021.4 hPa
MVFR
Sep-24
17:00 UTC
Varies @4 KTS 3 miles Overcast
2,200' AGL
13° C
55° F
12° C
54° F
94% 30.15" Hg
1021.1 hPa
MVFR
Sep-24
16:44 UTC
180°
3 KTS
3 miles Overcast
2,000' AGL
13° C
55° F
12° C
54° F
94% 30.15" Hg
1021.1 hPa
MVFR
Sep-24
16:07 UTC
Varies @2 KTS 3 miles Broken
1,500' AGL
13° C
55° F
12° C
54° F
94% 30.14" Hg
1020.8 hPa
MVFR
Sep-24
15:21 UTC
2 miles Overcast
8,800' AGL
12° C
54° F
12° C
54° F
100% 30.14" Hg
1020.7 hPa
IFR
Sep-24
15:08 UTC
1 miles Vertical visibility
300' AGL
12° C
54° F
12° C
54° F
100% 30.14" Hg
1020.8 hPa
LIFR
Sep-24
14:29 UTC
1/4 miles Overcast
8,800' AGL
12° C
54° F
11° C
52° F
94% 30.14" Hg
1020.7 hPa
LIFR
Sep-24
14:16 UTC
100°
2 KTS
1 miles Broken
300' AGL
11° C
52° F
11° C
52° F
100% 30.14" Hg
1020.7 hPa
LIFR
Sep-24
14:00 UTC
080°
3 KTS
2 miles Broken
8,900' AGL
11° C
52° F
11° C
52° F
100% 30.14" Hg
1020.7 hPa
IFR
Sep-24
13:43 UTC
050°
2 KTS
2 miles Broken
8,800' AGL
12° C
54° F
11° C
52° F
94% 30.14" Hg
1020.8 hPa
IFR
Sep-24
13:24 UTC
Varies @2 KTS 1/4 miles Broken
500' AGL
12° C
54° F
12° C
54° F
100% 30.14" Hg
1020.8 hPa
LIFR
Sep-24
13:00 UTC
1/13 miles Vertical visibility
300' AGL
12° C
54° F
12° C
54° F
100% 30.14" Hg
1020.9 hPa
LIFR
Sep-24
01:00 UTC
170°
3 KTS
15 miles Broken
16,000' AGL
14° C
57° F
12° C
54° F
88% 30.11" Hg
1019.6 hPa
VFR
Sep-24
00:00 UTC
180°
3 KTS
15 miles Broken
22,000' AGL
14° C
57° F
12° C
54° F
88% 30.11" Hg
1019.8 hPa
VFR
Sep-23
23:00 UTC
210°
4 KTS
15 miles Broken
17,000' AGL
14° C
57° F
13° C
55° F
94% 30.12" Hg
1020.1 hPa
VFR
Sep-23
22:00 UTC
180°
5 KTS
15 miles Broken
15,000' AGL
14° C
57° F
12° C
54° F
88% 30.11" Hg
1019.8 hPa
VFR